Location: Roc des P�zouls
(43.9667°N, 3.5500°E)
Time: 21:01:57
(UTC+00:00)

ATLAS 2AS CENTAUR R/B - Pass Details

Date: 14 November 2019
Orbit: 926 x 1286 km, 63.7° (Epoch: 09 December)

Event Time Altitude Azimuth Distance (km) Brightness Sun altitude
Exits shadow 03:53:44 16° 342° (NNW) 2,770 4.7 -29.7°
Maximum altitude 03:58:33 29° 30° (NNE) 2,062 4.4 -28.8°
Drops below altitude 10° 04:04:45 10° 88° (E) 3,036 6.1 -27.7°
Sets 04:07:48 0° 100° (E) 3,934 6.9 -27.2°
